IRNSS-1E

Last updated on Wed Nov 20 2024 00:02:41 GMT+0000 (Coordinated Universal Time)

1 41241U 16003A 24323.71558867 -.00000303 00000+0 00000+0 0 9998 2 41241 31.9849 71.1791 0022120 182.9868 173.4155 1.00268419 32308
UTC large
Height (km)
Speed (km/s)
/
Latitude / Longitude
Inclination (degrees)
Orbital Period (minutes)
Azimuth
Elevation
Range (km)
Doppler Factor

Next 0 passes for location: London (51.5072 / 0.1276)

Sorry there are no passes over London.